DLH5MX EDDF-EDDM

Flight info

Callsign DLH5MX
Flight time 0h 40m
Altitude 23000
Route CINDY8S CINDY Z74 HAREM T104 ROKIL ROKIL1B
Aircraft A321/M-SDE2E3FGIJ1LORWXYZ/HB1

Departure

Time 2026-05-05 13:27
Airport Frankfurt Main Airport (EDDF)

Arrival

Time 2026-05-05 14:07
Airport Munich Airport (EDDM)
Time Latitude Longitude Altitude Speed Heading
2026-05-05 12:41 50.04850 8.56952 361 ft 0 kts 295°
2026-05-05 13:09 50.04843 8.56978 362 ft 3 kts 292°
2026-05-05 13:09 50.04835 8.57005 363 ft 3 kts 294°
2026-05-05 13:09 50.04830 8.57036 364 ft 3 kts 258°
2026-05-05 13:10 50.04838 8.57064 362 ft 3 kts 214°
2026-05-05 13:10 50.04840 8.57067 362 ft 3 kts 205°
2026-05-05 13:10 50.04819 8.57053 361 ft 3 kts 205°
2026-05-05 13:10 50.04798 8.57038 359 ft 3 kts 205°
2026-05-05 13:11 50.04796 8.57036 359 ft 0 kts 205°
2026-05-05 13:14 50.04792 8.57034 358 ft 1 kts 205°
2026-05-05 13:14 50.04782 8.57026 356 ft 2 kts 205°
2026-05-05 13:14 50.04766 8.57015 361 ft 3 kts 205°
2026-05-05 13:15 50.04743 8.56999 358 ft 4 kts 204°
2026-05-05 13:15 50.04709 8.56975 358 ft 6 kts 204°
2026-05-05 13:15 50.04667 8.56944 359 ft 8 kts 205°
2026-05-05 13:15 50.04612 8.56911 356 ft 9 kts 195°
2026-05-05 13:16 50.04557 8.56892 363 ft 6 kts 193°
2026-05-05 13:16 50.04512 8.56876 359 ft 7 kts 193°
2026-05-05 13:16 50.04466 8.56845 364 ft 8 kts 220°
2026-05-05 13:16 50.04433 8.56750 365 ft 12 kts 248°
2026-05-05 13:17 50.04401 8.56616 361 ft 15 kts 250°
2026-05-05 13:17 50.04364 8.56459 359 ft 16 kts 250°
2026-05-05 13:17 50.04326 8.56301 362 ft 15 kts 250°
2026-05-05 13:17 50.04289 8.56148 357 ft 15 kts 249°
2026-05-05 13:18 50.04252 8.55993 361 ft 15 kts 249°
2026-05-05 13:18 50.04214 8.55834 354 ft 16 kts 249°
2026-05-05 13:18 50.04176 8.55671 356 ft 16 kts 250°
2026-05-05 13:18 50.04136 8.55508 358 ft 16 kts 249°
2026-05-05 13:19 50.04099 8.55355 354 ft 14 kts 249°
2026-05-05 13:19 50.04068 8.55224 359 ft 12 kts 250°
2026-05-05 13:19 50.04040 8.55108 354 ft 12 kts 249°
2026-05-05 13:19 50.04011 8.54983 355 ft 13 kts 250°
2026-05-05 13:20 50.03977 8.54845 359 ft 15 kts 249°
2026-05-05 13:20 50.03938 8.54685 355 ft 17 kts 250°
2026-05-05 13:20 50.03899 8.54515 352 ft 17 kts 250°
2026-05-05 13:20 50.03864 8.54382 355 ft 11 kts 243°
2026-05-05 13:21 50.03823 8.54287 350 ft 11 kts 235°
2026-05-05 13:21 50.03791 8.54186 353 ft 9 kts 249°
2026-05-05 13:21 50.03770 8.54098 349 ft 9 kts 249°
2026-05-05 13:21 50.03750 8.54014 352 ft 8 kts 250°
2026-05-05 13:22 50.03730 8.53930 347 ft 8 kts 250°
2026-05-05 13:22 50.03712 8.53855 348 ft 8 kts 249°
2026-05-05 13:22 50.03686 8.53751 351 ft 12 kts 249°
2026-05-05 13:22 50.03652 8.53610 347 ft 15 kts 249°
2026-05-05 13:23 50.03616 8.53467 338 ft 13 kts 249°
2026-05-05 13:23 50.03592 8.53367 336 ft 10 kts 250°
2026-05-05 13:23 50.03565 8.53251 336 ft 13 kts 250°
2026-05-05 13:23 50.03539 8.53147 337 ft 10 kts 249°
2026-05-05 13:24 50.03512 8.53035 335 ft 12 kts 249°
2026-05-05 13:24 50.03484 8.52922 335 ft 10 kts 249°
2026-05-05 13:24 50.03456 8.52813 334 ft 7 kts 246°
2026-05-05 13:24 50.03440 8.52753 334 ft 3 kts 248°
2026-05-05 13:25 50.03438 8.52745 333 ft 0 kts 248°
2026-05-05 13:26 50.03434 8.52731 335 ft 3 kts 248°
2026-05-05 13:26 50.03424 8.52694 334 ft 5 kts 248°
2026-05-05 13:26 50.03409 8.52636 334 ft 7 kts 246°
2026-05-05 13:26 50.03372 8.52597 334 ft 7 kts 193°
2026-05-05 13:27 50.03295 8.52595 332 ft 23 kts 179°
2026-05-05 13:27 50.02850 8.52598 336 ft 103 kts 180°
2026-05-05 13:27 50.01906 8.52603 419 ft 157 kts 183°
2026-05-05 13:27 50.00815 8.52609 1151 ft 162 kts 182°
2026-05-05 13:28 49.99604 8.52598 1549 ft 184 kts 181°
2026-05-05 13:28 49.98255 8.52576 1968 ft 204 kts 181°
2026-05-05 13:28 49.96803 8.52998 2437 ft 223 kts 151°
2026-05-05 13:28 49.95758 8.54775 3255 ft 230 kts 119°
2026-05-05 13:29 49.95027 8.56991 4136 ft 230 kts 119°
2026-05-05 13:29 49.94294 8.59243 4924 ft 236 kts 112°
2026-05-05 13:29 49.93977 8.61812 5497 ft 254 kts 96°
2026-05-05 13:29 49.93856 8.64668 5996 ft 272 kts 94°
2026-05-05 13:30 49.93571 8.67545 6725 ft 275 kts 109°
2026-05-05 13:30 49.92691 8.70216 7513 ft 276 kts 129°
2026-05-05 13:30 49.91321 8.72250 8306 ft 277 kts 146°
2026-05-05 13:30 49.89744 8.73986 9132 ft 279 kts 144°
2026-05-05 13:31 49.88324 8.76085 9908 ft 284 kts 130°
2026-05-05 13:31 49.87225 8.78723 10353 ft 302 kts 121°
2026-05-05 13:31 49.86155 8.81657 10646 ft 320 kts 120°
2026-05-05 13:31 49.85076 8.84675 11250 ft 327 kts 120°
2026-05-05 13:32 49.83968 8.87782 11950 ft 330 kts 120°
2026-05-05 13:32 49.82847 8.90914 12653 ft 334 kts 120°
2026-05-05 13:32 49.81708 8.94075 13358 ft 337 kts 120°
2026-05-05 13:32 49.80555 8.97257 14006 ft 340 kts 121°
2026-05-05 13:33 49.79385 9.00467 14641 ft 344 kts 121°
2026-05-05 13:33 49.78202 9.03701 15269 ft 347 kts 121°
2026-05-05 13:33 49.77005 9.06971 15885 ft 350 kts 121°
2026-05-05 13:33 49.76029 9.10399 16487 ft 356 kts 110°
2026-05-05 13:34 49.75403 9.14137 17094 ft 361 kts 107°
2026-05-05 13:34 49.74581 9.17808 17678 ft 361 kts 118°
2026-05-05 13:34 49.73305 9.21140 18261 ft 361 kts 129°
2026-05-05 13:34 49.71679 9.24114 18773 ft 363 kts 134°
2026-05-05 13:35 49.70002 9.27058 19324 ft 365 kts 134°
2026-05-05 13:35 49.68316 9.30012 19879 ft 368 kts 134°
2026-05-05 13:35 49.66619 9.32992 20410 ft 370 kts 134°
2026-05-05 13:35 49.64912 9.35997 20961 ft 373 kts 134°
2026-05-05 13:36 49.63220 9.38985 21445 ft 375 kts 134°
2026-05-05 13:36 49.61490 9.42033 21947 ft 378 kts 134°
2026-05-05 13:36 49.59754 9.45089 22446 ft 380 kts 134°
2026-05-05 13:36 49.58001 9.48173 22764 ft 384 kts 133°
2026-05-05 13:37 49.56258 9.51241 22822 ft 374 kts 133°
2026-05-05 13:37 49.54559 9.54230 22825 ft 368 kts 133°
2026-05-05 13:37 49.52875 9.57188 22825 ft 367 kts 133°
2026-05-05 13:37 49.51190 9.60141 22825 ft 366 kts 133°
2026-05-05 13:38 49.50074 9.62093 22832 ft 366 kts 134°
2026-05-05 13:38 49.48389 9.65034 22830 ft 366 kts 134°
2026-05-05 13:38 49.46700 9.67975 22833 ft 366 kts 134°
2026-05-05 13:38 49.44462 9.71865 22833 ft 366 kts 134°
2026-05-05 13:39 49.43321 9.73849 22835 ft 366 kts 134°
2026-05-05 13:39 49.41654 9.76747 22836 ft 366 kts 134°
2026-05-05 13:39 49.39966 9.79677 22837 ft 366 kts 134°
2026-05-05 13:39 49.38273 9.82611 22838 ft 366 kts 134°
2026-05-05 13:40 49.36580 9.85541 22822 ft 366 kts 134°
2026-05-05 13:40 49.34908 9.88432 22830 ft 366 kts 134°
2026-05-05 13:40 49.33218 9.91348 22832 ft 366 kts 134°
2026-05-05 13:40 49.31526 9.94263 22851 ft 365 kts 134°
2026-05-05 13:41 49.29838 9.97171 22853 ft 365 kts 134°
2026-05-05 13:41 49.28148 10.00075 22854 ft 364 kts 134°
2026-05-05 13:41 49.26456 10.02974 22857 ft 364 kts 134°
2026-05-05 13:41 49.24767 10.05867 22851 ft 364 kts 134°
2026-05-05 13:42 49.23083 10.08752 22843 ft 363 kts 134°
2026-05-05 13:42 49.21396 10.11645 22847 ft 364 kts 134°
2026-05-05 13:42 49.19706 10.14545 22847 ft 364 kts 134°
2026-05-05 13:42 49.18045 10.17392 22842 ft 363 kts 134°
2026-05-05 13:43 49.16339 10.20307 22834 ft 363 kts 134°
2026-05-05 13:43 49.14673 10.23145 22820 ft 362 kts 135°
2026-05-05 13:43 49.12979 10.25995 22819 ft 362 kts 136°
2026-05-05 13:43 49.11252 10.28813 22818 ft 362 kts 136°
2026-05-05 13:44 49.09512 10.31600 22813 ft 362 kts 137°
2026-05-05 13:44 49.07785 10.34347 22815 ft 362 kts 137°
2026-05-05 13:44 49.06034 10.37129 22815 ft 363 kts 137°
2026-05-05 13:44 49.04289 10.39903 22826 ft 362 kts 136°
2026-05-05 13:45 49.02542 10.42687 22826 ft 362 kts 136°
2026-05-05 13:45 49.00806 10.45467 22834 ft 361 kts 136°
2026-05-05 13:45 48.99096 10.48209 22836 ft 361 kts 136°
2026-05-05 13:45 48.97359 10.50983 22821 ft 361 kts 136°
2026-05-05 13:46 48.95625 10.53746 22822 ft 361 kts 136°
2026-05-05 13:46 48.93886 10.56511 22826 ft 361 kts 136°
2026-05-05 13:46 48.92146 10.59278 22820 ft 361 kts 136°
2026-05-05 13:46 48.90367 10.62099 22810 ft 375 kts 136°
2026-05-05 13:47 48.88551 10.64976 22784 ft 375 kts 136°
2026-05-05 13:47 48.86759 10.67819 22308 ft 369 kts 136°
2026-05-05 13:47 48.84994 10.70620 21752 ft 366 kts 137°
2026-05-05 13:47 48.83240 10.73398 21187 ft 362 kts 137°
2026-05-05 13:48 48.81505 10.76144 20641 ft 359 kts 137°
2026-05-05 13:48 48.79781 10.78870 20069 ft 356 kts 137°
2026-05-05 13:48 48.78071 10.81564 19525 ft 354 kts 137°
2026-05-05 13:48 48.76366 10.84239 18978 ft 352 kts 137°
2026-05-05 13:49 48.74669 10.86897 18408 ft 350 kts 137°
2026-05-05 13:49 48.72981 10.89539 17917 ft 347 kts 137°
2026-05-05 13:49 48.71316 10.92140 17475 ft 340 kts 137°
2026-05-05 13:49 48.69685 10.94684 17055 ft 333 kts 137°
2026-05-05 13:50 48.68107 10.97146 16669 ft 327 kts 137°
2026-05-05 13:50 48.66536 10.99596 16280 ft 322 kts 137°
2026-05-05 13:50 48.64970 11.02037 15888 ft 316 kts 137°
2026-05-05 13:50 48.63467 11.04370 15518 ft 311 kts 137°
2026-05-05 13:51 48.61965 11.06694 15147 ft 307 kts 137°
2026-05-05 13:51 48.60484 11.08985 14782 ft 303 kts 136°
2026-05-05 13:51 48.59022 11.11247 14425 ft 299 kts 136°
2026-05-05 13:51 48.57506 11.13358 14059 ft 294 kts 145°
2026-05-05 13:52 48.55829 11.15087 13714 ft 291 kts 147°
2026-05-05 13:52 48.54194 11.16870 13309 ft 289 kts 139°
2026-05-05 13:52 48.52941 11.19225 12944 ft 289 kts 122°
2026-05-05 13:52 48.52238 11.22059 12623 ft 290 kts 103°
2026-05-05 13:53 48.52151 11.25188 12377 ft 308 kts 86°
2026-05-05 13:53 48.52573 11.28394 12117 ft 313 kts 80°
2026-05-05 13:53 48.53033 11.31586 11827 ft 310 kts 79°
2026-05-05 13:53 48.53491 11.34766 11575 ft 308 kts 79°
2026-05-05 13:54 48.53943 11.37919 11313 ft 307 kts 79°
2026-05-05 13:54 48.54392 11.41068 11061 ft 306 kts 79°
2026-05-05 13:54 48.54838 11.44201 10796 ft 305 kts 79°
2026-05-05 13:54 48.55281 11.47325 10533 ft 304 kts 79°
2026-05-05 13:55 48.55721 11.50446 10272 ft 303 kts 79°
2026-05-05 13:55 48.56158 11.53559 10017 ft 301 kts 80°
2026-05-05 13:55 48.56576 11.56592 9730 ft 295 kts 82°
2026-05-05 13:55 48.56697 11.59656 9500 ft 291 kts 96°
2026-05-05 13:56 48.56355 11.62651 9249 ft 288 kts 108°
2026-05-05 13:56 48.55703 11.65508 9011 ft 287 kts 110°
2026-05-05 13:56 48.55044 11.68353 8762 ft 287 kts 111°
2026-05-05 13:56 48.54392 11.71196 8525 ft 286 kts 110°
2026-05-05 13:57 48.53744 11.74022 8288 ft 285 kts 110°
2026-05-05 13:57 48.53098 11.76845 8044 ft 285 kts 111°
2026-05-05 13:57 48.52451 11.79665 7806 ft 284 kts 111°
2026-05-05 13:57 48.51804 11.82478 7570 ft 283 kts 111°
2026-05-05 13:58 48.51158 11.85280 7337 ft 282 kts 111°
2026-05-05 13:58 48.50512 11.88070 7106 ft 282 kts 111°
2026-05-05 13:58 48.49865 11.90854 6872 ft 281 kts 111°
2026-05-05 13:58 48.49214 11.93641 6636 ft 280 kts 111°
2026-05-05 13:59 48.47932 11.99142 6168 ft 278 kts 111°
2026-05-05 13:59 48.47289 12.01906 5999 ft 278 kts 111°
2026-05-05 14:00 48.45999 12.07408 5626 ft 278 kts 111°
2026-05-05 14:00 48.45577 12.09209 5564 ft 271 kts 110°
2026-05-05 14:00 48.44777 12.12642 5416 ft 248 kts 111°
2026-05-05 14:00 48.44229 12.14988 5307 ft 235 kts 111°
2026-05-05 14:01 48.43634 12.17243 5287 ft 224 kts 125°
2026-05-05 14:01 48.42500 12.18624 5232 ft 205 kts 163°
2026-05-05 14:01 48.41116 12.18764 5170 ft 201 kts 194°
2026-05-05 14:01 48.39901 12.17779 5141 ft 201 kts 224°
2026-05-05 14:02 48.39220 12.15944 5061 ft 205 kts 256°
2026-05-05 14:02 48.39037 12.13810 4979 ft 206 kts 262°
2026-05-05 14:02 48.38891 12.11666 4963 ft 206 kts 263°
2026-05-05 14:02 48.38741 12.09563 4898 ft 196 kts 263°
2026-05-05 14:03 48.38597 12.07591 4711 ft 185 kts 263°
2026-05-05 14:03 48.38456 12.05691 4480 ft 180 kts 263°
2026-05-05 14:03 48.38322 12.03871 4254 ft 175 kts 263°
2026-05-05 14:03 48.38187 12.02061 4022 ft 171 kts 262°
2026-05-05 14:04 48.38056 12.00297 3800 ft 168 kts 263°
2026-05-05 14:04 48.37927 11.98574 3581 ft 161 kts 264°
2026-05-05 14:04 48.37806 11.96950 3403 ft 150 kts 263°
2026-05-05 14:04 48.37691 11.95416 3199 ft 145 kts 263°
2026-05-05 14:05 48.37578 11.93906 3013 ft 144 kts 262°
2026-05-05 14:05 48.37465 11.92403 2817 ft 144 kts 262°
2026-05-05 14:05 48.37353 11.90913 2643 ft 144 kts 263°
2026-05-05 14:05 48.37240 11.89425 2467 ft 143 kts 263°
2026-05-05 14:06 48.37128 11.87939 2254 ft 143 kts 264°
2026-05-05 14:06 48.37016 11.86445 2063 ft 145 kts 264°
2026-05-05 14:06 48.36901 11.84938 1879 ft 146 kts 265°
2026-05-05 14:06 48.36788 11.83430 1686 ft 145 kts 266°
2026-05-05 14:07 48.36673 11.81919 1508 ft 145 kts 265°
2026-05-05 14:07 48.36570 11.80551 1482 ft 112 kts 263°
2026-05-05 14:07 48.36498 11.79647 1476 ft 63 kts 263°
2026-05-05 14:07 48.36464 11.79210 1478 ft 24 kts 263°
2026-05-05 14:08 48.36419 11.78972 1479 ft 24 kts 245°
2026-05-05 14:08 48.36338 11.78781 1478 ft 9 kts 234°
2026-05-05 14:08 48.36305 11.78714 1482 ft 6 kts 233°
2026-05-05 14:08 48.36277 11.78658 1480 ft 5 kts 233°
2026-05-05 14:09 48.36275 11.78655 1480 ft 1 kts 233°
2026-05-05 14:09 48.36267 11.78638 1471 ft 3 kts 233°